[[{"header":{"parameterUnit":"m.s-1","parameterCategory":2,"la1":30.2991,"la2":30.254,"lo1":-89.0895,"lo2":-89.0444,"dy":0.0017,"dx":0.0017,"nx":28,"ny":28,"refTime":"2024-05-02T03:00:00:Z","depth":"0","parameterNumber":2,"parameterNumberName":"U-component_of_CURRENTS"},"data":[0,0,0,0,0,0,0,0,0,0,0,0,0,0,0,0,0,0,0,0,0,0,0,0,0,0,0,0,0,0,0,0,0,0,0,0,0,0,0,0,0,0,0,0,0,0,0,0,0,0,0,0,0,0,0,0,0,0,0.2321,0.2322,0,0.2358,0.2358,0.2359,0.2353,0.2353,0.2352,0.2351,0.2468,0.2472,0.2475,0,0,0,0,0,0,0,0,0,0,0,0,0,0.23,0.23,0.2321,0.2322,0.2322,0.2358,0.2358,0.2359,0.2353,0.2353,0.2352,0.2351,0.2467,0.2471,0.2476,0,0,0,0,0,0,0,0,0,0,0,0,0,0.232,0.23,0.2321,0.2324,0.2325,0.2358,0.2358,0.2359,0.2353,0.2352,0.2352,0.2351,0.2465,0.2471,0.2476,0.2528,0,0,0.2493,0.2495,0,0,0,0,0,0,0,0,0.2319,0.232,0.2323,0.2324,0.2325,0.235,0.2393,0.2419,0.2354,0.2342,0.2351,0.235,0.2437,0.2445,0.2452,0.2533,0.2538,0.2493,0.2497,0.2499,0.2501,0,0,0,0,0,0,0,0.2317,0.2319,0.2336,0.2324,0.2325,0.2341,0.2343,0.2398,0.2396,0.2343,0.2343,0.2348,0.2438,0.2447,0.2455,0.254,0.2493,0.2498,0.2502,0.2504,0.265,0.2651,0,0,0,0,0,0,0.2311,0.2318,0.2334,0.2337,0.232,0.2342,0.2344,0.2343,0.2393,0.2399,0.2348,0.2347,0.2438,0.2449,0.2459,0.2518,0.2499,0.2504,0.2507,0.265,0.265,0.2651,0,0,0,0,0,0,0.2311,0.2312,0.2333,0.2329,0.2332,0.2343,0.2342,0.2344,0.2352,0.2396,0.2404,0.2355,0.2437,0.2452,0.2496,0.2523,0.2507,0.2512,0.2649,0.265,0.2651,0.2641,0,0,0,0,0,0,0.231,0.2312,0.2313,0.2328,0.2332,0.2359,0.2343,0.2345,0.2357,0.2355,0.2405,0.2414,0.2438,0.2487,0.2501,0.253,0.2516,0.2648,0.2649,0.265,0.264,0.2641,0.2642,0,0,0,0,0,0.2309,0.2316,0.2312,0.2315,0.2332,0.236,0.2364,0.2369,0.2358,0.2371,0.2388,0.2413,0.2505,0.2492,0.2509,0.254,0.2648,0.2649,0.265,0.264,0.2641,0.2642,0,0,0,0,0,0,0.231,0.2317,0.2313,0.2322,0.2341,0.2359,0.2373,0.2373,0.2396,0.2394,0.2423,0.2435,0.2482,0.2512,0.2498,0.2583,0.2581,0.2585,0.2567,0.2569,0.257,0.2566,0.2521,0,0,0,0,0,0.231,0.2314,0.2329,0.2337,0.2347,0.2359,0.2371,0.2375,0.2395,0.2403,0.2431,0.2465,0.2503,0.2533,0.257,0.2627,0.2638,0.2656,0.2657,0.2657,0.2665,0.2696,0.27,0.2655,0.2655,0.2655,0,0,0.231,0.2317,0.2318,0.2338,0.2351,0.2374,0.2364,0.2387,0.2405,0.2418,0.245,0.247,0.2515,0.2563,0.259,0.2594,0.2672,0.2659,0.2659,0.2667,0.2697,0.2702,0.2705,0.2656,0.2656,0.2656,0,0,0.2321,0.2324,0.2333,0.2352,0.2375,0.2389,0.2395,0.2415,0.2423,0.246,0.2463,0.2492,0.2561,0.2587,0.2613,0.2647,0.2668,0.2663,0.2679,0.2709,0.2712,0.2716,0.2715,0.2718,0.2672,0.2672,0.2672,0,0.2324,0.2332,0.2343,0.2364,0.238,0.2395,0.2415,0.2436,0.2465,0.2481,0.2472,0.2546,0.2574,0.2634,0.2632,0.2651,0.2658,0.267,0.2709,0.2713,0.2717,0.2715,0.2719,0.2672,0.2672,0.2672,0.2672,0,0.2341,0.2353,0.2366,0.2391,0.2415,0.2437,0.2465,0.2487,0.2497,0.2516,0.2565,0.2589,0.2636,0.2646,0.265,0.2698,0.2688,0.2698,0.2704,0.2721,0.2717,0.2722,0.2671,0.2671,0.2672,0.2672,0,0,0.2328,0.2367,0.237,0.2383,0.2428,0.2446,0.2489,0.2531,0.2558,0.2586,0.2623,0.2667,0.2673,0.27,0.2711,0.273,0.2744,0.2722,0.2724,0.2716,0.2787,0.2736,0.2736,0.276,0.2761,0.2762,0.2766,0,0.2336,0.2367,0.239,0.2425,0.2443,0.2478,0.2515,0.2558,0.2595,0.2637,0.2669,0.271,0.27,0.2716,0.2736,0.2747,0.2759,0.274,0.2777,0.2778,0.2727,0.2741,0.2622,0.2613,0.277,0.2771,0.2771,0,0.2339,0.236,0.2389,0.2433,0.2445,0.2474,0.2534,0.2572,0.2644,0.2675,0.2727,0.2751,0.2791,0.2771,0.2808,0.2797,0.2791,0.2789,0.279,0.2753,0.2736,0.2627,0.2615,0.2544,0.2778,0.2778,0.2777,0,0.2311,0.2357,0.2376,0.2392,0.2449,0.2473,0.2509,0.2582,0.2623,0.2703,0.2734,0.2795,0.2817,0.2837,0.2836,0.2825,0.2862,0.2854,0.2801,0.2796,0.2709,0.2695,0.263,0.2876,0.2876,0.2876,0.2876,0,0.2303,0.2318,0.2363,0.2373,0.2406,0.2454,0.2505,0.2557,0.2637,0.2679,0.2747,0.2787,0.2833,0.2859,0.2855,0.2842,0.2885,0.2804,0.2801,0.2699,0.2685,0.2631,0.2602,0.2876,0.2876,0.2876,0.2876,0,0.2269,0.2297,0.2322,0.2375,0.2392,0.2418,0.2497,0.253,0.2613,0.2671,0.2695,0.2787,0.2823,0.2857,0.2886,0.2855,0.2761,0.2839,0.27,0.2681,0.2548,0.2523,0.2358,0.2288,0.2774,0.2773,0.2772,0,0.2253,0.2261,0.2311,0.2321,0.2344,0.239,0.2414,0.2509,0.2551,0.266,0.2677,0.2749,0.279,0.2826,0.2806,0.28,0.2714,0.2657,0.2617,0.2524,0.2496,0.2384,0.233,0.2488,0.2484,0.2482,0.248,0,0.2225,0.2242,0.2259,0.2279,0.2301,0.2331,0.2379,0.2412,0.2507,0.2549,0.2622,0.2671,0.2731,0.2688,0.2681,0.2657,0.2505,0.2601,0.2548,0.23,0.2132,0.2068,0.2489,0.2456,0.2459,0.246,0.2462,0.2463,0.2199,0.2199,0.2216,0.2224,0.2244,0.2252,0.224,0.2295,0.2335,0.237,0.2502,0.2519,0.2542,0.2536,0.2498,0.2352,0.2356,0.2246,0.2233,0.2136,0.2031,0.2388,0.2331,0.2332,0.2334,0.2335,0.2336,0,0.2151,0.2147,0.2155,0.2148,0.2121,0.2166,0.2184,0.2152,0.2135,0.2225,0.2274,0.2285,0.2227,0.2226,0.212,0.2,0.1899,0.1919,0.1744,0.172,0.2078,0.2032,0.1854,0.1854,0.1854,0.1854,0.1854,0.1854,0.2127,0.21,0.2091,0.2019,0.2004,0.194,0.1922,0.1898,0.1935,0.1919,0.1924,0.1978,0.202,0.1917,0.177,0.1716,0.1568,0.1456,0.148,0.1754,0.1783,0.1811,0.1761,0.153,0.153,0.1032,0.1028,0.1025]},{"header":{"parameterUnit":"m.s-1","parameterCategory":2,"la1":30.2991,"la2":30.254,"lo1":-89.0895,"lo2":-89.0444,"dy":0.0017,"dx":0.0017,"nx":28,"ny":28,"refTime":"2024-05-02T03:00:00:Z","depth":"0","parameterNumber":3,"parameterNumberName":"V-component_of_CURRENTS"},"data":[0,0,0,0,0,0,0,0,0,0,0,0,0,0,0,0,0,0,0,0,0,0,0,0,0,0,0,0,0,0,0,0,0,0,0,0,0,0,0,0,0,0,0,0,0,0,0,0,0,0,0,0,0,0,0,0,0,0,0.0278,0.0278,0,0.0258,0.0258,0.0258,0.0235,0.0235,0.0235,0.0235,0.015,0.0148,0.0146,0,0,0,0,0,0,0,0,0,0,0,0,0,0.0268,0.0269,0.0278,0.0278,0.0278,0.0258,0.0258,0.0258,0.0235,0.0235,0.0235,0.0234,0.0151,0.0149,0.0146,0,0,0,0,0,0,0,0,0,0,0,0,0,0.0262,0.0269,0.0278,0.0265,0.0264,0.0258,0.0258,0.0257,0.0235,0.0235,0.0235,0.0234,0.0152,0.0149,0.0146,0.0135,0,0,0.0137,0.0135,0,0,0,0,0,0,0,0,0.0262,0.0262,0.0267,0.0266,0.0264,0.025,0.0224,0.0213,0.0235,0.0245,0.0235,0.0234,0.0178,0.0173,0.017,0.0131,0.0127,0.0136,0.0135,0.0133,0.0132,0,0,0,0,0,0,0,0.0263,0.0263,0.0269,0.0267,0.0265,0.025,0.0249,0.0222,0.0212,0.0244,0.0243,0.0242,0.0177,0.0173,0.0168,0.0126,0.0136,0.0134,0.0132,0.0131,0.0095,0.0095,0,0,0,0,0,0,0.0269,0.0264,0.027,0.0269,0.0264,0.0251,0.025,0.0254,0.0214,0.0208,0.0243,0.0241,0.0178,0.0171,0.0164,0.0169,0.0133,0.013,0.0129,0.0094,0.0095,0.0096,0,0,0,0,0,0,0.0269,0.027,0.0271,0.0266,0.0265,0.0252,0.0257,0.0254,0.0252,0.0213,0.0206,0.0244,0.0178,0.0169,0.0158,0.0164,0.0129,0.0126,0.0093,0.0094,0.0095,0.0164,0,0,0,0,0,0,0.0269,0.0271,0.0275,0.0267,0.0266,0.0275,0.0257,0.0254,0.0253,0.0251,0.0212,0.0204,0.0177,0.0163,0.0155,0.0159,0.0124,0.0092,0.0093,0.0095,0.016,0.0167,0.0173,0,0,0,0,0,0.0269,0.028,0.0276,0.0277,0.0273,0.0275,0.0274,0.0262,0.0253,0.0258,0.0241,0.0205,0.0167,0.0162,0.0152,0.0155,0.0091,0.0093,0.0095,0.0157,0.0166,0.0173,0,0,0,0,0,0,0.0277,0.0279,0.0274,0.0284,0.0283,0.0272,0.0276,0.0267,0.0257,0.0255,0.0218,0.0209,0.02,0.0173,0.0168,0.0151,0.0122,0.0122,0.0173,0.018,0.0187,0.0197,0.0121,0,0,0,0,0,0.0282,0.0292,0.0288,0.0297,0.0298,0.0288,0.0287,0.028,0.0271,0.0266,0.0242,0.0217,0.02,0.0188,0.0165,0.0157,0.0133,0.0153,0.0159,0.0165,0.0168,0.0151,0.0156,0.0102,0.0102,0.0102,0,0,0.0286,0.029,0.0294,0.03,0.0297,0.0308,0.0286,0.0291,0.03,0.0257,0.0261,0.0236,0.0204,0.0199,0.0191,0.0176,0.0169,0.0167,0.0172,0.0172,0.0153,0.0158,0.0163,0.0103,0.0103,0.0103,0,0,0.0305,0.0305,0.0321,0.0325,0.0328,0.0324,0.0329,0.0322,0.032,0.0322,0.0295,0.0283,0.0252,0.0236,0.0223,0.025,0.0203,0.0237,0.0275,0.0259,0.0263,0.0266,0.0248,0.0249,0.024,0.024,0.024,0,0.0309,0.0332,0.0325,0.0343,0.0352,0.0336,0.0356,0.0353,0.0344,0.0348,0.0331,0.0303,0.0272,0.0271,0.0281,0.0263,0.0245,0.0249,0.0267,0.027,0.0272,0.0252,0.0252,0.0244,0.0243,0.0243,0.0243,0,0.0342,0.0359,0.037,0.039,0.0397,0.0413,0.0411,0.0414,0.0408,0.0403,0.0401,0.0368,0.0352,0.0338,0.0316,0.0319,0.0298,0.0277,0.0249,0.0282,0.0258,0.0258,0.0249,0.0248,0.0246,0.0246,0,0,0.0358,0.0388,0.0393,0.0413,0.0426,0.0438,0.0455,0.0469,0.049,0.0468,0.0486,0.0455,0.0434,0.0418,0.0386,0.0369,0.0368,0.0334,0.0331,0.0317,0.0331,0.0332,0.033,0.035,0.0351,0.0351,0.031,0,0.0388,0.0434,0.0439,0.0483,0.0508,0.0503,0.0525,0.0533,0.0536,0.0547,0.0511,0.0514,0.0466,0.0463,0.0439,0.0387,0.0368,0.0381,0.0299,0.0297,0.0295,0.0331,0.0376,0.0345,0.0309,0.0309,0.0309,0,0.0423,0.0451,0.0501,0.054,0.0551,0.0573,0.0611,0.0629,0.0636,0.0637,0.0627,0.0597,0.0571,0.0527,0.0454,0.0464,0.0405,0.036,0.0357,0.0332,0.0297,0.0305,0.0344,0.0285,0.0307,0.0307,0.0307,0,0.0451,0.0496,0.0542,0.0555,0.0593,0.0616,0.0636,0.0658,0.0692,0.0698,0.0715,0.0673,0.0659,0.0581,0.0486,0.047,0.0404,0.0369,0.0314,0.0312,0.0322,0.0322,0.0296,0.032,0.032,0.0321,0.0321,0,0.0488,0.0523,0.056,0.0587,0.0646,0.0655,0.072,0.0733,0.0768,0.0816,0.0765,0.0794,0.0673,0.0618,0.0517,0.0421,0.0427,0.0329,0.0307,0.0348,0.035,0.0274,0.0234,0.0319,0.0319,0.032,0.032,0,0.0517,0.0539,0.0594,0.0643,0.0664,0.0708,0.0781,0.0829,0.0846,0.0906,0.0911,0.0888,0.0823,0.0696,0.0576,0.0474,0.0345,0.0335,0.0391,0.0377,0.0266,0.0228,0.016,0.0135,0.0268,0.0268,0.0268,0,0.0536,0.0569,0.0639,0.0682,0.0709,0.0775,0.0828,0.087,0.0932,0.0975,0.1013,0.0969,0.0971,0.0795,0.0617,0.0448,0.036,0.0357,0.0334,0.0278,0.0218,0.0182,0.0162,0.0371,0.0372,0.0373,0.0373,0,0.0575,0.06,0.0649,0.0736,0.08,0.0879,0.0958,0.102,0.1072,0.1129,0.1201,0.1206,0.1046,0.0924,0.068,0.0549,0.0336,0.0364,0.0295,0.0295,0.0264,0.0224,0.0372,0.0379,0.0378,0.0378,0.0377,0.0377,0.0605,0.0647,0.0714,0.0798,0.0876,0.0979,0.105,0.1145,0.1257,0.135,0.1352,0.1393,0.1191,0.0888,0.0698,0.0398,0.0376,0.0312,0.0269,0.0235,0.0221,0.0382,0.037,0.0369,0.0369,0.0368,0.0368,0,0.0645,0.0697,0.0773,0.0876,0.0963,0.1,0.1135,0.1218,0.1358,0.1463,0.1539,0.1499,0.126,0.0963,0.0566,0.0355,0.0262,0.0236,0.0201,0.0182,0.0324,0.0341,0.0336,0.0336,0.0336,0.0336,0.0336,0.0336,0.0669,0.0747,0.0788,0.0933,0.1006,0.1132,0.1212,0.1343,0.1456,0.161,0.1672,0.1695,0.1497,0.0811,0.0375,0.0269,0.0129,0.0098,0.0013,0.0119,0.0123,0.0127,0.0134,0.0085,0.0085,-0.0088,-0.0089,-0.0091]}],[{"header":{"parameterUnit":"m.s-1","parameterCategory":2,"la1":30.2991,"la2":30.254,"lo1":-89.0895,"lo2":-89.0444,"dy":0.0017,"dx":0.0017,"nx":28,"ny":28,"refTime":"2024-05-02T03:00:00:Z","depth":"2","parameterNumber":2,"parameterNumberName":"U-component_of_CURRENTS"},"data":[0,0,0,0,0,0,0,0,0,0,0,0,0,0,0,0,0,0,0,0,0,0,0,0,0,0,0,0,0,0,0,0,0,0,0,0,0,0,0,0,0,0,0,0,0,0,0,0,0,0,0,0,0,0,0,0,0,0,0.209,0.209,0,0.2101,0.2101,0.2101,0.2094,0.2094,0.2094,0.2094,0.2127,0.2128,0.2129,0,0,0,0,0,0,0,0,0,0,0,0,0,0.2085,0.2085,0.209,0.209,0.2091,0.2101,0.2101,0.2101,0.2094,0.2094,0.2094,0.2094,0.2127,0.2128,0.2129,0,0,0,0,0,0,0,0,0,0,0,0,0,0.2089,0.2085,0.209,0.209,0.209,0.2101,0.2101,0.2101,0.2095,0.2094,0.2094,0.2094,0.2126,0.2128,0.2129,0.2144,0,0,0.2134,0.2135,0,0,0,0,0,0,0,0,0.2089,0.2089,0.209,0.209,0.209,0.2097,0.2111,0.2117,0.2095,0.2091,0.2094,0.2094,0.212,0.2122,0.2122,0.2145,0.2147,0.2134,0.2135,0.2136,0.2136,0,0,0,0,0,0,0,0.2089,0.2089,0.2093,0.209,0.209,0.2096,0.2096,0.2112,0.2106,0.2092,0.2091,0.2095,0.212,0.2121,0.2123,0.2147,0.2134,0.2135,0.2136,0.2137,0.2193,0.2194,0,0,0,0,0,0,0.209,0.2089,0.2093,0.2093,0.2091,0.2097,0.2097,0.2094,0.2106,0.2107,0.2095,0.2095,0.2118,0.2121,0.2124,0.2166,0.2136,0.2137,0.2138,0.2193,0.2193,0.2194,0,0,0,0,0,0,0.2089,0.209,0.2092,0.2093,0.2094,0.2097,0.2094,0.2094,0.2101,0.2109,0.211,0.2103,0.2118,0.2122,0.2144,0.2166,0.2138,0.2139,0.2192,0.2193,0.2194,0.2234,0,0,0,0,0,0,0.2089,0.2089,0.2091,0.2093,0.2094,0.2105,0.2095,0.2095,0.2104,0.2104,0.2116,0.2118,0.2118,0.2142,0.2146,0.2168,0.2141,0.2191,0.2192,0.2193,0.2232,0.2236,0.224,0,0,0,0,0,0.2089,0.2093,0.2091,0.2092,0.2095,0.2106,0.2107,0.2108,0.2105,0.2112,0.2118,0.2118,0.2151,0.2144,0.2148,0.2171,0.2191,0.2192,0.2193,0.223,0.2235,0.224,0,0,0,0,0,0,0.2092,0.2093,0.2091,0.2094,0.2103,0.2105,0.2114,0.2114,0.2124,0.2126,0.2128,0.2131,0.216,0.2157,0.2149,0.2189,0.217,0.2172,0.2197,0.2201,0.2205,0.2205,0.2142,0,0,0,0,0,0.2094,0.2096,0.21,0.2105,0.211,0.2114,0.2119,0.2121,0.2129,0.2133,0.2141,0.2151,0.2168,0.2177,0.219,0.2213,0.2215,0.2229,0.2233,0.2236,0.2238,0.227,0.2277,0.2198,0.2198,0.2198,0,0,0.2095,0.2098,0.2098,0.2106,0.2112,0.2123,0.2116,0.213,0.2142,0.2137,0.2158,0.2169,0.2178,0.2204,0.2216,0.2205,0.2257,0.2238,0.2241,0.2241,0.2272,0.228,0.2287,0.2199,0.2199,0.2199,0,0,0.2102,0.2105,0.2109,0.2119,0.2132,0.2138,0.2144,0.2153,0.2161,0.2183,0.2184,0.2207,0.2227,0.224,0.2248,0.228,0.228,0.2284,0.2304,0.2335,0.2342,0.2348,0.2353,0.2359,0.2283,0.2283,0.2283,0,0.2106,0.2107,0.2114,0.2125,0.2135,0.2145,0.2156,0.217,0.2185,0.22,0.2195,0.2239,0.2246,0.2283,0.229,0.2292,0.2298,0.2288,0.2341,0.2347,0.2353,0.2356,0.2363,0.2285,0.2285,0.2284,0.2284,0,0.2113,0.212,0.2127,0.2141,0.2156,0.2169,0.2188,0.2207,0.222,0.2234,0.2275,0.2288,0.2314,0.232,0.2315,0.236,0.2347,0.2347,0.2332,0.2364,0.2365,0.2371,0.2288,0.2287,0.2286,0.2286,0,0,0.2102,0.2125,0.2127,0.2134,0.2165,0.2173,0.2208,0.2237,0.2263,0.2288,0.2324,0.2353,0.2366,0.2375,0.2379,0.2399,0.244,0.2388,0.2389,0.2396,0.2494,0.2433,0.2433,0.2454,0.2455,0.2456,0.2476,0,0.2104,0.212,0.2135,0.2155,0.2164,0.2192,0.2222,0.2255,0.229,0.233,0.2359,0.2396,0.2386,0.2405,0.2427,0.2442,0.2459,0.2434,0.2458,0.2458,0.2404,0.2439,0.2238,0.2235,0.2481,0.2482,0.2483,0,0.2099,0.2111,0.2127,0.2157,0.2164,0.2184,0.2235,0.2266,0.2332,0.2364,0.2414,0.2438,0.248,0.2465,0.251,0.2496,0.2497,0.2501,0.2502,0.2435,0.2409,0.2244,0.2236,0.2493,0.2492,0.2491,0.2491,0,0.2075,0.2102,0.2112,0.2122,0.2162,0.2181,0.2212,0.2277,0.2316,0.2395,0.243,0.2487,0.2516,0.2541,0.2549,0.2537,0.259,0.2575,0.2519,0.2513,0.2341,0.2318,0.2607,0.2607,0.2607,0.2606,0.2606,0,0.206,0.2067,0.2101,0.2105,0.213,0.2169,0.2214,0.226,0.2337,0.238,0.2446,0.2487,0.2538,0.2571,0.2573,0.2564,0.2613,0.2527,0.2522,0.2347,0.2326,0.2548,0.2541,0.2607,0.2607,0.2607,0.2607,0,0.2027,0.2048,0.2061,0.2102,0.2117,0.2138,0.2211,0.2242,0.2324,0.2385,0.2411,0.2501,0.2543,0.2577,0.2617,0.2584,0.2589,0.2571,0.2351,0.232,0.2482,0.2476,0.2508,0.2506,0.2505,0.2503,0.2502,0,0.2009,0.2012,0.2051,0.2058,0.2076,0.2117,0.2141,0.2229,0.2268,0.238,0.2398,0.2476,0.2505,0.2547,0.2518,0.251,0.2566,0.2302,0.2243,0.2484,0.2476,0.2473,0.247,0.2023,0.2018,0.2014,0.2011,0,0.1975,0.1991,0.2001,0.202,0.2039,0.2064,0.211,0.214,0.2231,0.2275,0.2339,0.2379,0.2428,0.2331,0.2324,0.2293,0.2288,0.2219,0.2538,0.2085,0.203,0.2021,0.2033,0.1975,0.1979,0.1982,0.1983,0.1985,0.1949,0.1946,0.196,0.1966,0.1987,0.1991,0.198,0.2027,0.2063,0.2092,0.2204,0.2181,0.2194,0.2091,0.2017,0.1954,0.2115,0.1995,0.2006,0.2021,0.1968,0.1913,0.1825,0.1828,0.183,0.1832,0.1834,0,0.19,0.1898,0.1902,0.1895,0.1872,0.1916,0.193,0.1895,0.1875,0.1932,0.1958,0.1798,0.1722,0.1741,0.159,0.1575,0.1551,0.15,0.1444,0.1481,0.1514,0.1433,0.115,0.1148,0.1145,0.1144,0,0,0.1875,0.1847,0.1838,0.1773,0.1766,0.1708,0.1691,0.1657,0.1666,0.1615,0.1579,0.1683,0.1716,0.1425,0.1371,0.1234,0.1354,0.1186,0.1739,0.1714,0.1744,0.1806,0.1725,0,0,0,0,0]},{"header":{"parameterUnit":"m.s-1","parameterCategory":2,"la1":30.2991,"la2":30.254,"lo1":-89.0895,"lo2":-89.0444,"dy":0.0017,"dx":0.0017,"nx":28,"ny":28,"refTime":"2024-05-02T03:00:00:Z","depth":"2","parameterNumber":3,"parameterNumberName":"V-component_of_CURRENTS"},"data":[0,0,0,0,0,0,0,0,0,0,0,0,0,0,0,0,0,0,0,0,0,0,0,0,0,0,0,0,0,0,0,0,0,0,0,0,0,0,0,0,0,0,0,0,0,0,0,0,0,0,0,0,0,0,0,0,0,0,0.0235,0.0235,0,0.0229,0.0229,0.0229,0.0215,0.0215,0.0215,0.0215,0.0174,0.0174,0.0173,0,0,0,0,0,0,0,0,0,0,0,0,0,0.0217,0.0218,0.0235,0.0235,0.0235,0.0229,0.0229,0.0229,0.0216,0.0215,0.0215,0.0215,0.0175,0.0174,0.0173,0,0,0,0,0,0,0,0,0,0,0,0,0,0.0219,0.0218,0.0235,0.0228,0.0227,0.0229,0.0229,0.0229,0.0216,0.0215,0.0215,0.0214,0.0175,0.0174,0.0173,0.0172,0,0,0.0169,0.0168,0,0,0,0,0,0,0,0,0.0219,0.022,0.0229,0.0228,0.0228,0.0223,0.0208,0.0208,0.0216,0.022,0.0215,0.0214,0.0188,0.0186,0.0185,0.017,0.0169,0.0169,0.0168,0.0167,0.0167,0,0,0,0,0,0,0,0.0219,0.022,0.0233,0.0229,0.0228,0.0219,0.0219,0.0208,0.0205,0.0219,0.0218,0.0218,0.0187,0.0187,0.0184,0.0168,0.0169,0.0168,0.0167,0.0166,0.0162,0.0163,0,0,0,0,0,0,0.0222,0.022,0.0233,0.0232,0.0223,0.022,0.022,0.0225,0.0206,0.0203,0.0219,0.0218,0.0189,0.0186,0.0183,0.0193,0.0167,0.0166,0.0165,0.0162,0.0163,0.0163,0,0,0,0,0,0,0.0222,0.0223,0.0233,0.0226,0.0226,0.022,0.0226,0.0225,0.0225,0.0206,0.0202,0.0221,0.0189,0.0184,0.0184,0.0191,0.0166,0.0164,0.0161,0.0162,0.0163,0.0206,0,0,0,0,0,0,0.0221,0.0223,0.0228,0.0226,0.0227,0.0239,0.0226,0.0225,0.0226,0.0225,0.0207,0.0202,0.0188,0.0187,0.0183,0.0189,0.0163,0.016,0.0161,0.0163,0.0204,0.0208,0.0212,0,0,0,0,0,0.0221,0.0231,0.0229,0.023,0.0234,0.024,0.024,0.0233,0.0227,0.0231,0.0224,0.0203,0.0192,0.0186,0.0182,0.0187,0.016,0.0161,0.0162,0.0202,0.0207,0.0212,0,0,0,0,0,0,0.0224,0.0231,0.0228,0.0239,0.0241,0.0238,0.0242,0.0237,0.0235,0.0234,0.0214,0.021,0.0211,0.0196,0.0191,0.019,0.0171,0.0172,0.0202,0.0207,0.0212,0.0222,0.0162,0,0,0,0,0,0.0228,0.024,0.024,0.025,0.0252,0.0248,0.0249,0.0246,0.0243,0.0242,0.023,0.0219,0.0214,0.0209,0.02,0.0201,0.0182,0.0201,0.0206,0.0209,0.0215,0.0199,0.0202,0.0168,0.0168,0.0168,0,0,0.0231,0.0237,0.0243,0.0251,0.0252,0.0265,0.0248,0.0254,0.0266,0.0237,0.0249,0.0234,0.0218,0.0222,0.022,0.0209,0.0208,0.0211,0.0214,0.0219,0.0201,0.0204,0.0207,0.0169,0.0169,0.0169,0,0,0.0248,0.025,0.0266,0.0272,0.0278,0.0278,0.0282,0.0282,0.0282,0.0291,0.0274,0.0268,0.0258,0.025,0.0244,0.0267,0.0232,0.026,0.0288,0.0272,0.0274,0.0276,0.0253,0.0252,0.0261,0.0261,0.0261,0,0.0251,0.0275,0.0271,0.0289,0.03,0.0288,0.0309,0.0309,0.0309,0.0315,0.03,0.0292,0.0274,0.0281,0.0287,0.0276,0.0258,0.0269,0.0277,0.0278,0.028,0.0255,0.0254,0.0263,0.0263,0.0263,0.0262,0,0.0282,0.03,0.0311,0.0333,0.0342,0.0359,0.0361,0.0366,0.0363,0.0362,0.0367,0.0344,0.0339,0.0329,0.0314,0.0317,0.0297,0.0284,0.0264,0.0286,0.0258,0.0256,0.0266,0.0265,0.0265,0.0264,0,0,0.0295,0.0327,0.0333,0.0354,0.037,0.0384,0.0402,0.0419,0.044,0.0423,0.0442,0.0423,0.0405,0.0398,0.0373,0.0355,0.0342,0.0325,0.0323,0.0302,0.03,0.0296,0.0293,0.0329,0.0329,0.0329,0.0275,0,0.0324,0.037,0.0377,0.0423,0.0448,0.0447,0.0469,0.0479,0.0484,0.0497,0.0467,0.0474,0.0433,0.0432,0.0407,0.0364,0.034,0.0358,0.0282,0.028,0.0274,0.0292,0.0306,0.0261,0.0273,0.0273,0.0273,0,0.0357,0.0386,0.0436,0.0478,0.0489,0.0511,0.055,0.057,0.0577,0.058,0.0572,0.0548,0.0523,0.0483,0.0414,0.0426,0.0368,0.0326,0.0323,0.0304,0.0273,0.0241,0.0256,0.0269,0.027,0.027,0.027,0,0.0382,0.0429,0.0475,0.0489,0.053,0.0551,0.0573,0.0595,0.0628,0.0634,0.065,0.0612,0.0599,0.0525,0.0436,0.0424,0.0354,0.0327,0.0266,0.0264,0.0254,0.0252,0.0276,0.0276,0.0276,0.0276,0.0276,0,0.0417,0.0453,0.0491,0.0518,0.0575,0.0587,0.0649,0.0663,0.0695,0.074,0.0695,0.0716,0.0609,0.0554,0.046,0.0364,0.0371,0.0276,0.0255,0.027,0.027,0.0261,0.026,0.0274,0.0274,0.0275,0.0275,0,0.0444,0.0467,0.0522,0.0571,0.0592,0.0634,0.0703,0.0748,0.0765,0.0818,0.0822,0.0796,0.0729,0.0614,0.0499,0.0406,0.0308,0.0268,0.029,0.0273,0.0217,0.0219,0.0193,0.0192,0.0192,0.0192,0.0191,0,0.0462,0.0494,0.0564,0.0603,0.0629,0.0693,0.0742,0.0784,0.0839,0.0874,0.0905,0.0857,0.0843,0.0672,0.0509,0.0347,0.0316,0.024,0.0222,0.0229,0.0211,0.0214,0.0216,0.0218,0.0218,0.0218,0.0218,0,0.0498,0.0521,0.0569,0.0648,0.0708,0.0785,0.0856,0.0911,0.096,0.1001,0.1048,0.1036,0.088,0.0736,0.0513,0.0397,0.0267,0.0234,0.0241,0.0244,0.0251,0.0234,0.0236,0.0218,0.0218,0.0218,0.0218,0.0218,0.0523,0.0562,0.0622,0.0699,0.0772,0.0865,0.0929,0.1008,0.1098,0.1156,0.115,0.1128,0.0955,0.0683,0.0486,0.027,0.0284,0.0193,0.0194,0.0195,0.0214,0.0221,0.0185,0.0185,0.0185,0.0185,0.0185,0,0.0555,0.06,0.0669,0.0762,0.084,0.0878,0.0998,0.1063,0.1166,0.1216,0.1251,0.1078,0.0919,0.0705,0.04,0.0221,0.0197,0.0145,0.016,0.0162,0.0164,0.0182,0.0143,0.0143,0.0142,0.0141,0,0,0.0572,0.0638,0.0673,0.0799,0.0867,0.0977,0.1046,0.1143,0.121,0.1259,0.1246,0.1226,0.0986,0.0751,0.0509,0.0329,0.028,0.0282,0.0337,0.0387,0.039,0.0216,0.025,0,0,0,0,0]}],[{"header":{"parameterUnit":"m.s-1","parameterCategory":2,"la1":30.2991,"la2":30.254,"lo1":-89.0895,"lo2":-89.0444,"dy":0.0017,"dx":0.0017,"nx":28,"ny":28,"refTime":"2024-05-02T03:00:00:Z","depth":"4","parameterNumber":2,"parameterNumberName":"U-component_of_CURRENTS"},"data":[0,0,0,0,0,0,0,0,0,0,0,0,0,0,0,0,0,0,0,0,0,0,0,0,0,0,0,0,0,0,0,0,0,0,0,0,0,0,0,0,0,0,0,0,0,0,0,0,0,0,0,0,0,0,0,0,0,0,0.141,0.141,0,0.1436,0.1436,0.1436,0.1473,0.1474,0.1474,0.1475,0.1499,0.1498,0.1498,0,0,0,0,0,0,0,0,0,0,0,0,0,0.1385,0.1385,0.141,0.141,0.1411,0.1435,0.1436,0.1436,0.1473,0.1474,0.1475,0.1476,0.1499,0.1498,0.1498,0,0,0,0,0,0,0,0,0,0,0,0,0,0.14,0.1385,0.141,0.1434,0.1436,0.1435,0.1436,0.1436,0.1472,0.1474,0.1475,0.1476,0.1499,0.1498,0.1498,0.1473,0,0,0.1498,0.1498,0,0,0,0,0,0,0,0,0.1399,0.1401,0.143,0.1432,0.1435,0.1454,0.1436,0.1449,0.1472,0.1457,0.1475,0.1477,0.1484,0.1485,0.1484,0.1474,0.1475,0.1498,0.1498,0.1498,0.1498,0,0,0,0,0,0,0,0.1398,0.14,0.1418,0.143,0.1433,0.144,0.1443,0.1438,0.1462,0.1458,0.1461,0.1467,0.1485,0.1485,0.1485,0.1476,0.1498,0.1498,0.1497,0.1497,0.1548,0.1549,0,0,0,0,0,0,0.1397,0.1399,0.1418,0.1419,0.1421,0.144,0.1443,0.1445,0.1462,0.1466,0.1466,0.1468,0.1484,0.1485,0.1486,0.1543,0.1498,0.1497,0.1497,0.1546,0.1548,0.1549,0,0,0,0,0,0,0.1396,0.1398,0.1417,0.1411,0.1414,0.1439,0.144,0.1445,0.1475,0.1468,0.1472,0.1495,0.1485,0.1487,0.1511,0.1541,0.1497,0.1497,0.1544,0.1547,0.1549,0.1601,0,0,0,0,0,0,0.1396,0.1398,0.1413,0.1411,0.1415,0.1434,0.144,0.1445,0.1475,0.148,0.1493,0.1495,0.1486,0.1512,0.1511,0.154,0.1497,0.1543,0.1545,0.1548,0.1598,0.1605,0.1611,0,0,0,0,0,0.1394,0.1404,0.1413,0.1417,0.143,0.1435,0.1438,0.1458,0.1476,0.149,0.1506,0.1496,0.1529,0.1513,0.1512,0.1541,0.1541,0.1545,0.1548,0.1595,0.1603,0.1611,0,0,0,0,0,0,0.1403,0.1409,0.1419,0.1432,0.1443,0.1443,0.1462,0.1474,0.1496,0.1512,0.1507,0.1509,0.1547,0.1535,0.1517,0.1565,0.1536,0.154,0.1573,0.1581,0.1587,0.1587,0.1497,0,0,0,0,0,0.141,0.1423,0.1427,0.1442,0.1449,0.1462,0.1473,0.1486,0.1499,0.1512,0.1523,0.1538,0.1552,0.1561,0.157,0.1586,0.1584,0.1608,0.1615,0.162,0.1621,0.1654,0.1664,0.156,0.156,0.156,0,0,0.1419,0.1425,0.1434,0.1446,0.1458,0.1468,0.1472,0.1497,0.1515,0.1509,0.1549,0.1564,0.1564,0.1592,0.1607,0.1589,0.1649,0.1624,0.1629,0.1626,0.1658,0.1669,0.1677,0.1562,0.1562,0.1562,0,0,0.1429,0.1448,0.1458,0.1469,0.1491,0.1496,0.1509,0.1526,0.1549,0.1578,0.1588,0.1621,0.1636,0.1646,0.165,0.1696,0.1687,0.1707,0.1735,0.1768,0.1777,0.1784,0.1791,0.1799,0.1706,0.1706,0.1706,0,0.1444,0.1451,0.1464,0.1474,0.1489,0.1511,0.1524,0.1543,0.1571,0.1593,0.1603,0.1656,0.166,0.1693,0.1714,0.1711,0.1722,0.1702,0.1776,0.1784,0.1791,0.1796,0.1804,0.1709,0.1709,0.1708,0.1708,0,0.1448,0.1467,0.1476,0.1496,0.1514,0.1531,0.1554,0.1587,0.162,0.1639,0.1696,0.1711,0.1743,0.1754,0.1747,0.1801,0.179,0.1785,0.1754,0.1804,0.1807,0.1814,0.1713,0.1712,0.1711,0.171,0,0,0.144,0.1473,0.1479,0.1493,0.1528,0.1537,0.1581,0.1615,0.1653,0.1695,0.1742,0.1779,0.1804,0.1811,0.1819,0.1845,0.1902,0.184,0.184,0.1842,0.1966,0.183,0.1824,0.1917,0.1919,0.192,0.1946,0,0.1442,0.1462,0.1481,0.1511,0.1521,0.156,0.1595,0.1637,0.1683,0.1736,0.1774,0.1823,0.182,0.1852,0.188,0.1902,0.1924,0.1894,0.192,0.192,0.179,0.1829,0.1925,0.1952,0.1953,0.1954,0.1955,0,0.143,0.1448,0.1475,0.1516,0.1527,0.1556,0.1622,0.1657,0.1733,0.1775,0.1837,0.1868,0.1924,0.1916,0.1976,0.1961,0.197,0.1977,0.1978,0.1835,0.1797,0.1892,0.1968,0.1967,0.1966,0.1965,0.1964,0,0.14,0.1439,0.1464,0.1478,0.1529,0.1564,0.1604,0.1678,0.172,0.1814,0.1858,0.1924,0.197,0.2002,0.2022,0.2013,0.2075,0.206,0.194,0.193,0.2021,0.2013,0.2098,0.2098,0.2098,0.2098,0.2098,0,0.1372,0.1394,0.1459,0.1469,0.1511,0.1559,0.1621,0.1674,0.176,0.1805,0.1884,0.1923,0.1999,0.2038,0.2046,0.2009,0.2097,0.1945,0.193,0.2042,0.2036,0.2026,0.2017,0.2099,0.2099,0.2099,0.2099,0,0.1325,0.1367,0.1399,0.1469,0.1497,0.1532,0.1627,0.1663,0.1758,0.1823,0.1857,0.1947,0.1988,0.2035,0.2084,0.2021,0.2012,0.1978,0.2089,0.2081,0.1836,0.183,0.1836,0.1831,0.1828,0.1824,0.1822,0,0.1296,0.131,0.1396,0.142,0.1457,0.1522,0.1559,0.1658,0.1695,0.1813,0.1827,0.1909,0.1951,0.1907,0.197,0.1964,0.1941,0.1914,0.1871,0.1825,0.1812,0.1812,0.1811,0.1816,0.1815,0.1814,0.1813,0,0.1241,0.129,0.1319,0.1375,0.1421,0.146,0.1524,0.1541,0.164,0.174,0.1751,0.1762,0.1799,0.1821,0.1829,0.1825,0.1919,0.1874,0.1881,0.1841,0.1801,0.1791,0.1795,0.1799,0.1801,0.1802,0.1803,0,0.121,0.122,0.1273,0.1305,0.1362,0.1371,0.1417,0.1444,0.1491,0.1612,0.1613,0.1695,0.1783,0.1749,0.1761,0.1741,0.1707,0.1639,0.1658,0.1673,0.1605,0.153,0.1433,0,0,0,0,0,0.1166,0.1164,0.1193,0.1217,0.1268,0.13,0.1374,0.1419,0.1514,0.1478,0.154,0.1562,0.1565,0.1613,0.1558,0.1688,0.1719,0.1614,0.1651,0.1725,0.1741,0.1675,0,0,0,0,0,0,0.1134,0.1162,0.1162,0.1135,0.1135,0.1175,0.1219,0.1283,0.1269,0.1374,0.1389,0.1461,0.1497,0.1581,0.1527,0.1539,0.1526,0.1669,0.1665,0.1717,0.1731,0.1743,0.1681,0,0,0,0,0]},{"header":{"parameterUnit":"m.s-1","parameterCategory":2,"la1":30.2991,"la2":30.254,"lo1":-89.0895,"lo2":-89.0444,"dy":0.0017,"dx":0.0017,"nx":28,"ny":28,"refTime":"2024-05-02T03:00:00:Z","depth":"4","parameterNumber":3,"parameterNumberName":"V-component_of_CURRENTS"},"data":[0,0,0,0,0,0,0,0,0,0,0,0,0,0,0,0,0,0,0,0,0,0,0,0,0,0,0,0,0,0,0,0,0,0,0,0,0,0,0,0,0,0,0,0,0,0,0,0,0,0,0,0,0,0,0,0,0,0,0.0217,0.0217,0,0.0227,0.0227,0.0227,0.0229,0.0228,0.0228,0.0228,0.0228,0.0228,0.0228,0,0,0,0,0,0,0,0,0,0,0,0,0,0.0192,0.0192,0.0217,0.0217,0.0218,0.0227,0.0227,0.0227,0.0229,0.0228,0.0228,0.0228,0.0228,0.0228,0.0228,0,0,0,0,0,0,0,0,0,0,0,0,0,0.0202,0.0192,0.0217,0.0219,0.0219,0.0227,0.0227,0.0227,0.0229,0.0228,0.0228,0.0228,0.0228,0.0228,0.0228,0.0233,0,0,0.0229,0.0229,0,0,0,0,0,0,0,0,0.0202,0.0203,0.0219,0.0219,0.0219,0.0226,0.0218,0.0229,0.0229,0.0225,0.0228,0.0228,0.0227,0.0227,0.023,0.0233,0.0233,0.0229,0.0229,0.0229,0.0229,0,0,0,0,0,0,0,0.0201,0.0203,0.0221,0.0219,0.0219,0.0217,0.0218,0.022,0.0227,0.0226,0.0226,0.0226,0.0227,0.0229,0.0229,0.0233,0.0229,0.0229,0.0229,0.0229,0.0248,0.0248,0,0,0,0,0,0,0.02,0.0202,0.0221,0.0222,0.021,0.0217,0.0219,0.0224,0.0227,0.0227,0.0227,0.0227,0.0229,0.0229,0.0229,0.0249,0.0229,0.0229,0.0229,0.0247,0.0248,0.0248,0,0,0,0,0,0,0.02,0.0202,0.0221,0.0212,0.0214,0.0218,0.0224,0.0225,0.0231,0.0228,0.0228,0.0233,0.0229,0.0229,0.0241,0.0248,0.0229,0.0229,0.0247,0.0247,0.0248,0.0279,0,0,0,0,0,0,0.0199,0.0202,0.0208,0.0212,0.0214,0.023,0.0224,0.0225,0.0231,0.0232,0.0233,0.0233,0.0229,0.0241,0.0241,0.0248,0.023,0.0246,0.0247,0.0248,0.0278,0.0281,0.0283,0,0,0,0,0,0.0198,0.0208,0.0208,0.021,0.0222,0.0231,0.0232,0.0234,0.0232,0.0238,0.0242,0.0233,0.0245,0.0242,0.0242,0.0249,0.0246,0.0247,0.0248,0.0276,0.028,0.0283,0,0,0,0,0,0,0.0199,0.0209,0.0209,0.0221,0.0227,0.0231,0.0238,0.0238,0.0246,0.0247,0.0242,0.0243,0.0254,0.0248,0.0244,0.0256,0.0242,0.0243,0.0264,0.0267,0.027,0.0278,0.023,0,0,0,0,0,0.0202,0.0214,0.0219,0.0229,0.0233,0.0236,0.024,0.0242,0.0248,0.0251,0.0253,0.0254,0.0258,0.026,0.0262,0.0271,0.0256,0.0274,0.0277,0.028,0.0286,0.027,0.0272,0.0251,0.0251,0.0251,0,0,0.0205,0.0212,0.0218,0.023,0.0235,0.0249,0.0239,0.0249,0.0263,0.025,0.027,0.0266,0.0263,0.0274,0.0278,0.0271,0.0276,0.0281,0.0283,0.0288,0.0271,0.0273,0.0275,0.0252,0.0252,0.0252,0,0,0.0219,0.0224,0.0239,0.0247,0.0257,0.0261,0.0265,0.0273,0.0278,0.0294,0.0288,0.0291,0.0298,0.0297,0.0297,0.0317,0.0293,0.0314,0.0335,0.032,0.0322,0.0323,0.03,0.0299,0.0315,0.0315,0.0315,0,0.0221,0.0243,0.0244,0.0261,0.0273,0.0269,0.0289,0.0294,0.0305,0.0314,0.0305,0.0316,0.031,0.0323,0.0329,0.0324,0.0308,0.0323,0.0324,0.0325,0.0325,0.0301,0.03,0.0316,0.0316,0.0316,0.0316,0,0.0247,0.0266,0.0276,0.0299,0.031,0.0327,0.0334,0.0344,0.0348,0.0353,0.0366,0.0357,0.0363,0.0357,0.035,0.0354,0.0338,0.0329,0.0315,0.0329,0.0303,0.0301,0.0319,0.0318,0.0317,0.0317,0,0,0.0255,0.0288,0.0294,0.0315,0.0334,0.0349,0.0369,0.0391,0.0411,0.0407,0.0427,0.0424,0.0413,0.0412,0.0397,0.0382,0.0368,0.036,0.0358,0.0337,0.0327,0.0307,0.0302,0.0357,0.0357,0.0357,0.0304,0,0.0278,0.032,0.033,0.0374,0.0397,0.0403,0.0426,0.0442,0.0452,0.0468,0.045,0.0464,0.0436,0.0439,0.0419,0.0386,0.0364,0.0382,0.0316,0.0314,0.0295,0.03,0.0357,0.0302,0.0302,0.0301,0.0301,0,0.0303,0.0331,0.0377,0.0421,0.0432,0.0456,0.0497,0.0518,0.0531,0.0538,0.0537,0.0521,0.0505,0.0475,0.0419,0.0431,0.0383,0.0348,0.0345,0.0316,0.029,0.0286,0.0297,0.0297,0.0297,0.0298,0.0298,0,0.0317,0.0366,0.0408,0.0423,0.0467,0.049,0.0515,0.0541,0.0572,0.0584,0.0597,0.0571,0.0563,0.0502,0.0428,0.0424,0.0357,0.0341,0.0274,0.0272,0.0291,0.0291,0.0296,0.0296,0.0296,0.0296,0.0296,0,0.0342,0.0377,0.042,0.0445,0.0501,0.0519,0.0577,0.0596,0.0627,0.0664,0.0636,0.0646,0.0569,0.052,0.0443,0.0353,0.0366,0.0279,0.026,0.0305,0.0306,0.0289,0.0289,0.0294,0.0294,0.0295,0.0295,0,0.0355,0.0382,0.0434,0.0488,0.0511,0.0552,0.0623,0.0661,0.0684,0.0726,0.073,0.0706,0.0642,0.0553,0.0455,0.0379,0.0292,0.0254,0.0308,0.0292,0.021,0.0212,0.0174,0.0173,0.0172,0.0172,0.0171,0,0.0365,0.0393,0.0467,0.0504,0.0533,0.0597,0.0643,0.0689,0.0731,0.076,0.0777,0.0734,0.0698,0.0546,0.045,0.0301,0.0275,0.0218,0.0213,0.0214,0.0199,0.0203,0.0206,0.017,0.0169,0.0169,0.0169,0,0.0383,0.041,0.0454,0.0528,0.0586,0.0656,0.0721,0.0754,0.08,0.0818,0.081,0.0734,0.0661,0.0545,0.0431,0.0322,0.025,0.0208,0.0209,0.0203,0.0208,0.0194,0.0199,0.0166,0.0166,0.0166,0.0167,0,0.0396,0.0427,0.0483,0.055,0.0623,0.0691,0.0728,0.0771,0.0812,0.0834,0.083,0.075,0.0713,0.0556,0.0452,0.0344,0.0308,0.0255,0.0252,0.0255,0.0291,0.0309,0.0283,0,0,0,0,0,0.0405,0.0439,0.0499,0.0572,0.0644,0.0688,0.077,0.08,0.0839,0.0833,0.0833,0.0762,0.0611,0.0557,0.0445,0.0427,0.0287,0.0288,0.0223,0.0148,0.0152,0.0178,0,0,0,0,0,0,0.0409,0.0463,0.0494,0.0578,0.0627,0.071,0.0762,0.0791,0.0792,0.0809,0.074,0.0707,0.0573,0.067,0.0433,0.0403,0.0339,0.0227,0.0224,0.0146,0.0149,0.0152,0.0181,0,0,0,0,0]}]]